Observation Tools

Boxelder Photo courtesy of Steve Baskauf, Vanderbilt University, bioimages.vanderbilt.edu.

Boxelder (Acer negundo)


Also Known As: Ash-leaf maple, Manitoba maple, Western boxelder, California boxelder
Plant Family: Maple (Aceraceae)
Project BudBurst Plant Group: Deciduous Trees and Shrubs

Identification Hints: Boxelder is unusual among maplesin that it has compound leaves. Seedling and young saplings of Boxelder have a remarkable resemblance to poison ivy - so be careful!

Did you Know? Boxelder has decreased in its native range because of clearing of bottomland forest for agriculture, but they have greatly increased in urban areas. The success of the species on disturbed urban sitesis due to its prolific seed production and wide dispersal, ease of germination,tolerance of low oxygen conditions, and fast growth on clay or heavy fill. Boxelder also is found as a pioneer species on disturbed upland sites where a seed source is nearby. Boxelder trees are either male or female, although occasionallyyou may find a bisexual flower that has both anthers (male) and a stigma (female). No individual tree produces both pollen and seeds.


Live Map for Boxelder

Other years available for viewing:

Below you can view all observations that have been reported in for Boxelder (If the map below is empty then there have not been any observations reported.)

Use the navigation buttons on the left to zoom in/out and pan around. Click on each place marker to get detail information about that observation.

Leaf/Needles/Stalk = Leaf/Needles/Stalk Flower = Flower Pollen = Pollen Fruiting = Fruiting Color = Color

--Back to Top--

close help window button

The table below displays all the data that has been submitted to Project BudBurst. By default, the data is sorted by the date on which the phenophase occurred. Clicking the up and down arrows next to each column name allows you to sort on any value. If there have been more than 10 observations submitted, you can choose how many to display at a time using the "Show __ entries" control. You can also page through the data using the previous and next buttons at the bottom right of the table.

The Search box allows you to search all of the data. Searching by date, species, phenophase, etc. is easy—just start typing and the table will immediately change to contain only observations that contain your search phrase. Do you want to see only 2012 observations? Just type "2012" in the search box. Only want to see maples? Enter "Acer." You can combine searches, too! Searching for "acer 2012" will narrow your results to only the maples that were observed in 2012 (assuming that any observations exist, of course).

Once you have your results in the order desired, you can use any of the buttons above the search box to copy the results to the clipboard; save them as a text, or spreadsheet; or even print them from your browser!

Observational data for Boxelder:

help button
Date Contributor Common Name Species Phenophase Latitude Longitude Obs#
Thu Mar 20 00:00:00 GMT 2008 anonymous Boxelder Acer negundo First Flower 37.821500000000000 -122.255000000000000 779
Wed Mar 26 00:00:00 GMT 2008 wildraisin2000 Boxelder Acer negundo First Flower 39.140500000000000 -78.240200000000000 1072
Tue Apr 01 00:00:00 GMT 2008 hedda62 Boxelder Acer negundo First Leaf 39.172000000000000 -77.272200000000000 1111
Sat Apr 05 00:00:00 GMT 2008 hedda62 Boxelder Acer negundo All Leaves Unfolded 39.172000000000000 -77.272200000000000 1242
Wed Apr 09 00:00:00 GMT 2008 wvtroutbum Boxelder Acer negundo First Leaf 38.402700000000000 -81.747800000000000 1552
Wed Apr 02 00:00:00 GMT 2008 hedda62 Boxelder Acer negundo First Flower 39.172000000000000 -77.272200000000000 1554
Sun Apr 06 00:00:00 GMT 2008 hedda62 Boxelder Acer negundo Full Flower 39.172000000000000 -77.272200000000000 1555
Wed Apr 09 00:00:00 GMT 2008 toscanoc Boxelder Acer negundo First Leaf 39.197000000000000 -76.832800000000000 1574
Wed Apr 09 00:00:00 GMT 2008 SuziZ Boxelder Acer negundo First Leaf 37.969200000000000 -90.989100000000000 1594
Fri Apr 11 00:00:00 GMT 2008 SuziZ Boxelder Acer negundo First Flower 37.969200000000000 -90.989100000000000 1595
Tue Apr 15 00:00:00 GMT 2008 jlewis5 Boxelder Acer negundo First Leaf 42.158200000000000 -76.953800000000000 1811
Fri Apr 18 00:00:00 GMT 2008 Robert E.Groos Boxelder Acer negundo First Leaf 42.239400000000000 -88.270000000000000 1966
Sun Apr 20 00:00:00 GMT 2008 Robert E.Groos Boxelder Acer negundo First Flower 42.239400000000000 -88.270000000000000 1967
Fri Apr 18 00:00:00 GMT 2008 ookla Boxelder Acer negundo First Leaf 44.936200000000000 -93.509700000000000 1987
Sat Apr 19 00:00:00 GMT 2008 anonymous Boxelder Acer negundo First Leaf 42.229800000000000 -88.107200000000000 2527
Wed Apr 16 00:00:00 GMT 2008 anonymous Boxelder Acer negundo First Leaf 42.229800000000000 -88.107200000000000 2528
Wed Apr 23 00:00:00 GMT 2008 anonymous Boxelder Acer negundo All Leaves Unfolded 42.229800000000000 -88.107200000000000 2529
Mon Apr 28 00:00:00 GMT 2008 anonymous Boxelder Acer negundo First Ripe Fruit 42.229800000000000 -88.107200000000000 2530
Thu May 01 00:00:00 GMT 2008 Robert E.Groos Boxelder Acer negundo Full Flower 42.239400000000000 -88.270000000000000 2702
Thu Apr 24 00:00:00 GMT 2008 alliebunge Boxelder Acer negundo First Leaf 43.673900000000000 -92.083300000000000 2976
Mon Apr 14 00:00:00 GMT 2008 anonymous Boxelder Acer negundo First Leaf 43.148200000000000 -83.383000000000000 2994
Fri Apr 18 00:00:00 GMT 2008 anonymous Boxelder Acer negundo All Leaves Unfolded 43.148200000000000 -83.383000000000000 2995
Thu May 08 00:00:00 GMT 2008 maureen2383@msn.com Boxelder Acer negundo First Leaf 39.662000000000000 -105.164000000000000 3106
Thu May 08 00:00:00 GMT 2008 anonymous Boxelder Acer negundo First Leaf 41.021000000000000 -81.739400000000000 3306
Thu May 08 00:00:00 GMT 2008 anonymous Boxelder Acer negundo All Leaves Unfolded 41.021000000000000 -81.739400000000000 3307
Thu May 08 00:00:00 GMT 2008 anonymous Boxelder Acer negundo First Leaf 41.021000000000000 -81.739400000000000 3308
Thu May 08 00:00:00 GMT 2008 anonymous Boxelder Acer negundo All Leaves Unfolded 41.021000000000000 -81.739400000000000 3309
Thu May 08 00:00:00 GMT 2008 anonymous Boxelder Acer negundo First Leaf 41.021000000000000 -81.739400000000000 3310
Thu May 08 00:00:00 GMT 2008 anonymous Boxelder Acer negundo All Leaves Unfolded 41.021000000000000 -81.739400000000000 3311
Thu May 15 00:00:00 GMT 2008 maureen2383@msn.com Boxelder Acer negundo All Leaves Unfolded 39.662000000000000 -105.164000000000000 3579
Tue May 20 00:00:00 GMT 2008 daveyount Boxelder Acer negundo First Leaf 46.812800000000000 -92.056000000000000 3717
Mon Mar 24 00:00:00 GMT 2008 6602 Boxelder Acer negundo All Leaves Unfolded 42.069400000000000 -87.783900000000000 3799
Sun May 25 00:00:00 GMT 2008 maureen2383@msn.com Boxelder Acer negundo First Flower 39.662000000000000 -105.164000000000000 3811
Fri Apr 18 00:00:00 GMT 2008 jjasedwards Boxelder Acer negundo First Flower 42.148900000000000 -83.927000000000000 3826
Wed May 28 00:00:00 GMT 2008 daveyount Boxelder Acer negundo First Flower 46.812800000000000 -92.056000000000000 3862
Wed May 28 00:00:00 GMT 2008 daveyount Boxelder Acer negundo First Flower 46.812800000000000 -92.056000000000000 3863
Fri May 30 00:00:00 GMT 2008 maureen2383@msn.com Boxelder Acer negundo Full Flower 39.662000000000000 -105.164000000000000 3910
Tue Jul 22 00:00:00 GMT 2008 maureen2383@msn.com Boxelder Acer negundo End of Flowering 39.662000000000000 -105.164000000000000 4587
Wed Aug 27 00:00:00 GMT 2008 maureen2383@msn.com Boxelder Acer negundo First Ripe Fruit 39.662000000000000 -105.164000000000000 4666
Thu Oct 09 00:00:00 GMT 2008 hedda62 Boxelder Acer negundo First Ripe Fruit 39.172000000000000 -77.272200000000000 4703
Fri Apr 11 00:00:00 GMT 2008 anonymous Boxelder Acer negundo First Leaf 40.726200000000000 -79.747100000000000 4815
Mon Apr 28 00:00:00 GMT 2008 anonymous Boxelder Acer negundo All Leaves Unfolded 40.726200000000000 -79.747100000000000 4816
Sat Apr 19 00:00:00 GMT 2008 anonymous Boxelder Acer negundo First Flower 40.726200000000000 -79.747100000000000 4817
Fri Apr 25 00:00:00 GMT 2008 anonymous Boxelder Acer negundo End of Flowering 40.726200000000000 -79.747100000000000 4818
Fri Oct 24 00:00:00 GMT 2008 anonymous Boxelder Acer negundo First Ripe Fruit 40.726200000000000 -79.747100000000000 4819
Wed Feb 11 00:00:00 GMT 2009 anonymous Boxelder Acer negundo First Flower 33.950800000000000 -81.014700000000000 4868
Wed Apr 08 00:00:00 GMT 2009 anonymous Boxelder Acer negundo First Leaf 39.160000000000000 -86.490000000000000 5937
Thu Apr 16 00:00:00 GMT 2009 anonymous Boxelder Acer negundo All Leaves Unfolded 39.160000000000000 -86.490000000000000 5938
Wed Apr 08 00:00:00 GMT 2009 anonymous Boxelder Acer negundo First Leaf 39.160000000000000 -86.490000000000000 5934
Thu Apr 16 00:00:00 GMT 2009 anonymous Boxelder Acer negundo All Leaves Unfolded 39.160000000000000 -86.490000000000000 5935
Tue Mar 03 00:00:00 GMT 2009 LaurenMuss Boxelder Acer negundo First Leaf 39.162200000000000 -86.525900000000000 6011
Fri Mar 13 00:00:00 GMT 2009 LaurenMuss Boxelder Acer negundo All Leaves Unfolded 39.162200000000000 -86.525900000000000 6012
Sun Apr 19 00:00:00 GMT 2009 srstebbi Boxelder Acer negundo First Pollen 43.020400000000000 -76.126700000000000 6288
Fri Apr 24 00:00:00 GMT 2009 David_W Boxelder Acer negundo Full Pollen 42.458200000000000 -76.438900000000000 6572
Sun Apr 19 00:00:00 GMT 2009 David_W Boxelder Acer negundo First Leaf 42.458200000000000 -76.438900000000000 6573
Fri Apr 24 00:00:00 GMT 2009 youngdianne Boxelder Acer negundo First Leaf 43.548600000000000 -85.085600000000000 6608
Sun Apr 26 00:00:00 GMT 2009 srstebbi Boxelder Acer negundo First Leaf 43.020400000000000 -76.126700000000000 6759
Fri Apr 17 00:00:00 GMT 2009 anonymous Boxelder Acer negundo First Pollen 42.875600000000000 -84.909900000000000 6760
Thu Apr 30 00:00:00 GMT 2009 compobs Boxelder Acer negundo First Leaf 45.379400000000000 -93.076700000000000 6930
Fri May 01 00:00:00 GMT 2009 knautiamom Boxelder Acer negundo All Leaves Unfolded 41.631000000000000 -86.291000000000000 6940
Tue May 05 00:00:00 GMT 2009 maureen2383@msn.com Boxelder Acer negundo First Leaf 39.662000000000000 -105.164000000000000 7094
Mon Apr 27 00:00:00 GMT 2009 palaback Boxelder Acer negundo First Pollen 46.866700000000000 -114.000000000000000 7081
Wed May 06 00:00:00 GMT 2009 palaback Boxelder Acer negundo First Leaf 46.866700000000000 -114.000000000000000 7087
Wed May 06 00:00:00 GMT 2009 palaback Boxelder Acer negundo Full Pollen 46.866700000000000 -114.000000000000000 7086
Wed May 06 00:00:00 GMT 2009 anonymous Boxelder Acer negundo First Pollen 45.153700000000000 -93.353000000000000 7255
Mon Apr 20 00:00:00 GMT 2009 anonymous Boxelder Acer negundo First Leaf 45.153700000000000 -93.353000000000000 7256
Mon Apr 27 00:00:00 GMT 2009 anonymous Boxelder Acer negundo All Leaves Unfolded 45.153700000000000 -93.353000000000000 7257
Sun May 10 00:00:00 GMT 2009 maureen2383@msn.com Boxelder Acer negundo All Leaves Unfolded 39.662000000000000 -105.164000000000000 7500
Sun May 10 00:00:00 GMT 2009 maureen2383@msn.com Boxelder Acer negundo All Leaves Unfolded 39.662000000000000 -105.164000000000000 8052
Fri May 15 00:00:00 GMT 2009 maureen2383@msn.com Boxelder Acer negundo All Leaves Unfolded 39.662000000000000 -105.164000000000000 8318
Mon Apr 27 00:00:00 GMT 2009 palaback Boxelder Acer negundo First Pollen 46.866700000000000 -114.000000000000000 8651
Wed May 06 00:00:00 GMT 2009 palaback Boxelder Acer negundo Full Pollen 46.866700000000000 -114.000000000000000 8652
Tue May 19 00:00:00 GMT 2009 palaback Boxelder Acer negundo End of Pollen 46.866700000000000 -114.000000000000000 8653
Sun Sep 27 00:00:00 GMT 2009 palaback Boxelder Acer negundo First Ripe Fruit 46.866700000000000 -114.000000000000000 8654
Mon Apr 27 00:00:00 GMT 2009 palaback Boxelder Acer negundo First Pollen 46.866700000000000 -114.000000000000000 8713
Wed May 06 00:00:00 GMT 2009 palaback Boxelder Acer negundo Full Pollen 46.866700000000000 -114.000000000000000 8714
Tue May 19 00:00:00 GMT 2009 palaback Boxelder Acer negundo End of Pollen 46.866700000000000 -114.000000000000000 8715
Sun Oct 18 00:00:00 GMT 2009 palaback Boxelder Acer negundo 50% Color 46.866700000000000 -114.000000000000000 8787
Mon Oct 05 00:00:00 GMT 2009 anonymous Boxelder Acer negundo 50% Color 45.596700000000000 -93.919400000000000 8848
Mon Oct 12 00:00:00 GMT 2009 anonymous Boxelder Acer negundo 50% Leaf Fall 45.596700000000000 -93.919400000000000 8849
Sun Apr 05 00:00:00 GMT 2009 wildraisin2000 Boxelder Acer negundo First Pollen 39.140500000000000 -78.240200000000000 8879
Thu Apr 16 00:00:00 GMT 2009 wildraisin2000 Boxelder Acer negundo Full Pollen 39.140500000000000 -78.240200000000000 8880
Tue Apr 28 00:00:00 GMT 2009 wildraisin2000 Boxelder Acer negundo End of Pollen 39.140500000000000 -78.240200000000000 8881
Thu Apr 09 00:00:00 GMT 2009 wildraisin2000 Boxelder Acer negundo First Leaf 39.140500000000000 -78.240200000000000 8882
Thu Apr 23 00:00:00 GMT 2009 wildraisin2000 Boxelder Acer negundo All Leaves Unfolded 39.140500000000000 -78.240200000000000 8883
Tue Sep 08 00:00:00 GMT 2009 wildraisin2000 Boxelder Acer negundo First Ripe Fruit 39.140500000000000 -78.240200000000000 8884
Sun Oct 18 00:00:00 GMT 2009 palaback Boxelder Acer negundo 50% Color 46.866700000000000 -114.000000000000000 8937
Sat Oct 24 00:00:00 GMT 2009 palaback Boxelder Acer negundo 50% Leaf Fall 46.866700000000000 -114.000000000000000 8938
Sun Apr 04 00:00:00 GMT 2010 anonymous Boxelder Acer negundo All Leaves Unfolded 41.631000000000000 -86.290500000000000 9497
Wed Apr 07 00:00:00 GMT 2010 axen Boxelder Acer negundo First Pollen 44.870300000000000 -93.508600000000000 10107
Fri Apr 09 00:00:00 GMT 2010 axen Boxelder Acer negundo Full Pollen 44.870300000000000 -93.508600000000000 10108
Sat Apr 17 00:00:00 GMT 2010 axen Boxelder Acer negundo End of Pollen 44.870300000000000 -93.508600000000000 10109
Mon Apr 12 00:00:00 GMT 2010 axen Boxelder Acer negundo First Leaf 44.870300000000000 -93.508600000000000 10110
Tue Apr 13 00:00:00 GMT 2010 axen Boxelder Acer negundo All Leaves Unfolded 44.870300000000000 -93.508600000000000 10111
Sat Apr 24 00:00:00 GMT 2010 wmoore Boxelder Acer negundo First Leaf 44.312800000000000 -72.773900000000000 10089
Mon Apr 26 00:00:00 GMT 2010 palaback Boxelder Acer negundo First Leaf 46.866700000000000 -114.000000000000000 10176
Fri Apr 02 00:00:00 GMT 2010 Sally Boxelder Acer negundo First Pollen 39.140200000000000 -78.241100000000000 11687
Fri Apr 02 00:00:00 GMT 2010 Sally Boxelder Acer negundo Full Pollen 39.140200000000000 -78.241100000000000 11688
Sun Apr 04 00:00:00 GMT 2010 Sally Boxelder Acer negundo End of Pollen 39.140200000000000 -78.241100000000000 11689
Sun Apr 04 00:00:00 GMT 2010 Sally Boxelder Acer negundo First Leaf 39.140200000000000 -78.241100000000000 11690
Thu Apr 08 00:00:00 GMT 2010 Sally Boxelder Acer negundo All Leaves Unfolded 39.140200000000000 -78.241100000000000 11691
Thu Jul 08 00:00:00 GMT 2010 Sally Boxelder Acer negundo First Ripe Fruit 39.140200000000000 -78.241100000000000 11692
Thu Feb 03 00:00:00 GMT 2011 shark Boxelder Acer negundo First Flower 34.651300000000000 -112.137000000000000 11784
Fri Apr 15 00:00:00 GMT 2011 palaback Boxelder Acer negundo Flowers (Early) 39.884700000000000 -75.269400000000000 12160
Tue Sep 20 00:00:00 GMT 2011 dseeger Boxelder Acer negundo Leaves Changing Color (Early) 43.191900000000000 -89.455700000000000 13323
Wed Sep 21 00:00:00 GMT 2011 palaback Boxelder Acer negundo First Leaf 40.420800000000000 -105.160000000000000 13340
Wed Sep 21 00:00:00 GMT 2011 palaback Boxelder Acer negundo First Ripe Fruit 40.420800000000000 -105.160000000000000 13341
Fri Dec 04 00:00:00 GMT 2015 palaback Boxelder Acer negundo Leaves Changing Color (Late) 40.396000000000000 -105.102000000000000 13762
Thu Nov 17 00:00:00 GMT 2011 palaback Boxelder Acer negundo Fruit (Middle) 40.546500000000000 -105.165000000000000 13872
Thu Mar 22 00:00:00 GMT 2012 emerinem Boxelder Acer negundo First Leaf 44.337000000000000 -88.641100000000000 14396
Wed Mar 21 00:00:00 GMT 2012 Buster Brown Boxelder Acer negundo First Leaf 41.433600000000000 -81.378000000000000 14470
Sun Mar 25 00:00:00 GMT 2012 emerinem Boxelder Acer negundo All Leaves Unfolded 44.337000000000000 -88.641100000000000 14639
Mon Apr 02 00:00:00 GMT 2012 JanetLou52 Boxelder Acer negundo Flowers (Early) 37.816100000000000 -122.259000000000000 14670
Thu Apr 12 00:00:00 GMT 2012 bestmo83 Boxelder Acer negundo Fruit (Early) 42.145800000000000 -87.785700000000000 14954
Fri Apr 13 00:00:00 GMT 2012 palaback Boxelder Acer negundo First Flower 40.420800000000000 -105.160000000000000 14968
Wed Apr 18 00:00:00 GMT 2012 bestmo83 Boxelder Acer negundo Fruit (Early) 42.145800000000000 -87.785700000000000 15077
Fri Apr 20 00:00:00 GMT 2012 UVMplantBio Boxelder Acer negundo Leaves Unfolding (Middle) 44.475000000000000 -73.196600000000000 15119
Wed May 02 00:00:00 GMT 2012 bestmo83 Boxelder Acer negundo Fruit (Middle) 42.261800000000000 -87.860600000000000 15455
Thu May 10 00:00:00 GMT 2012 bestmo83 Boxelder Acer negundo Fruit (Middle) 42.150600000000000 -87.784600000000000 15534
Fri Jul 13 00:00:00 GMT 2012 ChrisInce Boxelder Acer negundo Leaves Unfolding (Late) 36.223000000000000 -118.675000000000000 16254
Mon Sep 10 00:00:00 GMT 2012 sandrah Boxelder Acer negundo Fruit (Middle) 43.044300000000000 -87.893800000000000 16573
Tue Oct 02 00:00:00 GMT 2012 JGawthrop53 Boxelder Acer negundo Fruit (Late) 37.825400000000000 -122.252000000000000 16783
Tue Oct 02 00:00:00 GMT 2012 palaback Boxelder Acer negundo Leaves Changing Color (Middle) 40.412400000000000 -105.153000000000000 16779
Sun Nov 04 00:00:00 GMT 2012 squizzle-1 Boxelder Acer negundo 50% Leaf Fall 42.388900000000000 -71.149000000000000 17508
Sat Apr 20 00:00:00 GMT 2013 ncmns Boxelder Acer negundo Leaves Unfolding (Late) 35.772100000000000 -78.638600000000000 19047
Sat Apr 27 00:00:00 GMT 2013 ncmns Boxelder Acer negundo Leaves Unfolding (Late) 35.811700000000000 -78.713900000000000 19199
Sat Mar 30 00:00:00 GMT 2013 ncmns Boxelder Acer negundo Leaves Unfolding (Early) 35.811700000000000 -78.713900000000000 19368
Sat Apr 13 00:00:00 GMT 2013 ncmns Boxelder Acer negundo Leaves Unfolding (Middle) 35.811700000000000 -78.713900000000000 19375
Tue May 07 00:00:00 GMT 2013 allib001 Boxelder Acer negundo First Leaf 45.053700000000000 -92.812700000000000 20099
Fri May 03 00:00:00 GMT 2013 allib001 Boxelder Acer negundo First Flower 45.053700000000000 -92.812700000000000 20100
Tue May 07 00:00:00 GMT 2013 allib001 Boxelder Acer negundo Full Flower 45.053700000000000 -92.812700000000000 20101
Mon Apr 08 00:00:00 GMT 2013 alichud Boxelder Acer negundo Bud Burst 39.401500000000000 -76.601900000000000 20134
Thu May 16 00:00:00 GMT 2013 ROSscience Boxelder Acer negundo Leaves Unfolding (Late) 40.814700000000000 -74.482500000000000 20452
Fri May 10 00:00:00 GMT 2013 allib001 Boxelder Acer negundo All Leaves Unfolded 45.053700000000000 -92.812700000000000 20488
Sun May 19 00:00:00 GMT 2013 allib001 Boxelder Acer negundo First Ripe Fruit 45.053700000000000 -92.812700000000000 20815
Tue Jun 18 00:00:00 GMT 2013 snewman14 Boxelder Acer negundo Fruit (Middle) 40.014900000000000 -105.244000000000000 21223
Tue Sep 10 00:00:00 GMT 2013 brydel_New_Branches_reporter42 Boxelder Acer negundo Full Fruiting 42.895800000000000 -85.635200000000000 22021
Tue Sep 10 00:00:00 GMT 2013 brydel_New_Branches_reporter43 Boxelder Acer negundo Full Fruiting 42.895800000000000 -85.635200000000000 22027
Fri Oct 11 00:00:00 GMT 2013 brydel_New_Branches_reporter61 Boxelder Acer negundo 50% Color 42.895800000000000 -85.635200000000000 22547
Sat Oct 12 00:00:00 GMT 2013 ncmns Boxelder Acer negundo Leaves Dropping (Middle) 35.811700000000000 -78.713900000000000 23059
Sat Nov 02 00:00:00 GMT 2013 ncmns Boxelder Acer negundo Leaves Changing Color (Late) 35.811700000000000 -78.713900000000000 23053
Sat Oct 12 00:00:00 GMT 2013 ncmns Boxelder Acer negundo Leaves Dropping (Late) 35.811700000000000 -78.713900000000000 23058
Thu Jan 16 00:00:00 GMT 2014 ncmns Boxelder Acer negundo Leaves Unfolding (None) 35.810800000000000 -78.715100000000000 24732
Thu Jan 16 00:00:00 GMT 2014 ncmns Boxelder Acer negundo Leaves Changing Color (None) 35.810800000000000 -78.715100000000000 24733
Thu Jan 16 00:00:00 GMT 2014 ncmns Boxelder Acer negundo Leaves Dropping (Late) 35.810800000000000 -78.715100000000000 24734
Thu Jan 16 00:00:00 GMT 2014 ncmns Boxelder Acer negundo Flowers (None) 35.810800000000000 -78.715100000000000 24735
Thu Jan 16 00:00:00 GMT 2014 ncmns Boxelder Acer negundo Fruit (None) 35.810800000000000 -78.715100000000000 24736
Thu Aug 29 00:00:00 GMT 2013 lakekatherine Boxelder Acer negundo Leaves Unfolding (Late) 41.678100000000000 -87.803700000000000 24926
Thu Aug 29 00:00:00 GMT 2013 lakekatherine Boxelder Acer negundo Leaves Changing Color (None) 41.678100000000000 -87.803700000000000 24927
Thu Aug 29 00:00:00 GMT 2013 lakekatherine Boxelder Acer negundo Leaves Dropping (None) 41.678100000000000 -87.803700000000000 24928
Thu Aug 29 00:00:00 GMT 2013 lakekatherine Boxelder Acer negundo Flowers (None) 41.678100000000000 -87.803700000000000 24929
Thu Aug 29 00:00:00 GMT 2013 lakekatherine Boxelder Acer negundo Fruit (Middle) 41.678100000000000 -87.803700000000000 24930
Wed Nov 06 00:00:00 GMT 2013 lakekatherine Boxelder Acer negundo Leaves Unfolding (None) 41.678100000000000 -87.803700000000000 24939
Wed Nov 06 00:00:00 GMT 2013 lakekatherine Boxelder Acer negundo Leaves Changing Color (Late) 41.678100000000000 -87.803700000000000 24940
Wed Nov 06 00:00:00 GMT 2013 lakekatherine Boxelder Acer negundo Leaves Dropping (Late) 41.678100000000000 -87.803700000000000 24941
Wed Nov 06 00:00:00 GMT 2013 lakekatherine Boxelder Acer negundo Flowers (None) 41.678100000000000 -87.803700000000000 24942
Wed Nov 06 00:00:00 GMT 2013 lakekatherine Boxelder Acer negundo Fruit (None) 41.678100000000000 -87.803700000000000 24943
Tue Feb 25 00:00:00 GMT 2014 zaclev Boxelder Acer negundo Leaves Unfolding (None) 38.367600000000000 -121.490000000000000 25797
Tue Feb 25 00:00:00 GMT 2014 zaclev Boxelder Acer negundo Leaves Changing Color (None) 38.367600000000000 -121.490000000000000 25798
Tue Feb 25 00:00:00 GMT 2014 zaclev Boxelder Acer negundo Leaves Dropping (None) 38.367600000000000 -121.490000000000000 25799
Tue Feb 25 00:00:00 GMT 2014 zaclev Boxelder Acer negundo Flowers (None) 38.367600000000000 -121.490000000000000 25800
Tue Feb 25 00:00:00 GMT 2014 zaclev Boxelder Acer negundo Fruit (None) 38.367600000000000 -121.490000000000000 25801
Thu Mar 13 00:00:00 GMT 2014 zaclev Boxelder Acer negundo Leaves Unfolding (Middle) 38.367600000000000 -121.494000000000000 26397
Thu Mar 13 00:00:00 GMT 2014 zaclev Boxelder Acer negundo Leaves Changing Color (None) 38.367600000000000 -121.494000000000000 26398
Thu Mar 13 00:00:00 GMT 2014 zaclev Boxelder Acer negundo Leaves Dropping (None) 38.367600000000000 -121.494000000000000 26399
Thu Mar 13 00:00:00 GMT 2014 zaclev Boxelder Acer negundo Flowers (None) 38.367600000000000 -121.494000000000000 26400
Thu Mar 13 00:00:00 GMT 2014 zaclev Boxelder Acer negundo Fruit (None) 38.367600000000000 -121.494000000000000 26401
Thu Mar 27 00:00:00 GMT 2014 pghbotanicgarden Boxelder Acer negundo Leaves Unfolding (None) 40.417100000000000 -80.169300000000000 27598
Thu Mar 27 00:00:00 GMT 2014 pghbotanicgarden Boxelder Acer negundo Leaves Changing Color (None) 40.417100000000000 -80.169300000000000 27599
Thu Mar 27 00:00:00 GMT 2014 pghbotanicgarden Boxelder Acer negundo Leaves Dropping (None) 40.417100000000000 -80.169300000000000 27600
Thu Mar 27 00:00:00 GMT 2014 pghbotanicgarden Boxelder Acer negundo Flowers (None) 40.417100000000000 -80.169300000000000 27601
Thu Mar 27 00:00:00 GMT 2014 pghbotanicgarden Boxelder Acer negundo Fruit (None) 40.417100000000000 -80.169300000000000 27602
Sun Apr 13 00:00:00 GMT 2014 pghbotanicgarden Boxelder Acer negundo Bud Burst 40.417200000000000 -80.169800000000000 29581
Wed Apr 23 00:00:00 GMT 2014 brydel_New_Branches_reporter50 Boxelder Acer negundo Bud Burst 42.895800000000000 -85.635200000000000 30351
Fri Sep 13 00:00:00 GMT 2013 brydel_New_Branches_reporter50 Boxelder Acer negundo First Ripe Fruit 42.895800000000000 -85.635200000000000 30352
Fri Oct 11 00:00:00 GMT 2013 brydel_New_Branches_reporter50 Boxelder Acer negundo 50% Color 42.895800000000000 -85.635200000000000 30353
Thu Dec 05 00:00:00 GMT 2013 brydel_New_Branches_reporter50 Boxelder Acer negundo 50% Leaf Fall 42.895800000000000 -85.635200000000000 30354
Fri Sep 13 00:00:00 GMT 2013 brydel_New_Branches_reporter50 Boxelder Acer negundo First Ripe Fruit 42.895800000000000 -85.635200000000000 30364
Fri Oct 11 00:00:00 GMT 2013 brydel_New_Branches_reporter50 Boxelder Acer negundo 50% Color 42.895800000000000 -85.635200000000000 30365
Thu Dec 05 00:00:00 GMT 2013 brydel_New_Branches_reporter50 Boxelder Acer negundo 50% Leaf Fall 42.895800000000000 -85.635200000000000 30366
Wed Apr 23 00:00:00 GMT 2014 brydel_New_Branches_reporter61 Boxelder Acer negundo Bud Burst 42.895800000000000 -85.635200000000000 30415
Wed Apr 23 00:00:00 GMT 2014 brydel_New_Branches_reporter61 Boxelder Acer negundo 50% Color 42.895800000000000 -85.635200000000000 30417
Wed Apr 23 00:00:00 GMT 2014 brydel_New_Branches_reporter61 Boxelder Acer negundo Bud Burst 42.895800000000000 -85.635200000000000 30418
Wed Apr 23 00:00:00 GMT 2014 brydel_New_Branches_reporter61 Boxelder Acer negundo 50% Color 42.895800000000000 -85.635200000000000 30419
Wed Apr 23 00:00:00 GMT 2014 brydel_New_Branches_reporter61 Boxelder Acer negundo Bud Burst 42.895800000000000 -85.635200000000000 30420
Wed Apr 23 00:00:00 GMT 2014 brydel_New_Branches_reporter61 Boxelder Acer negundo 50% Color 42.895800000000000 -85.635200000000000 30421
Wed Apr 23 00:00:00 GMT 2014 brydel_New_Branches_reporter61 Boxelder Acer negundo Bud Burst 42.895800000000000 -85.635200000000000 30422
Wed Apr 23 00:00:00 GMT 2014 brydel_New_Branches_reporter61 Boxelder Acer negundo 50% Color 42.895800000000000 -85.635200000000000 30423
Sun Apr 20 00:00:00 GMT 2014 pghbotanicgarden Boxelder Acer negundo First Leaf 40.417200000000000 -80.169800000000000 30456
Fri Apr 25 00:00:00 GMT 2014 Jones217 Boxelder Acer negundo Leaves Unfolding (Middle) 39.149510000000000 -86.524223000000000 30521
Fri Apr 25 00:00:00 GMT 2014 Jones217 Boxelder Acer negundo Leaves Changing Color (Middle) 39.149510000000000 -86.524223000000000 30522
Fri Apr 25 00:00:00 GMT 2014 Jones217 Boxelder Acer negundo Leaves Dropping (Middle) 39.149510000000000 -86.524223000000000 30523
Fri Apr 25 00:00:00 GMT 2014 Jones217 Boxelder Acer negundo Flowers (None) 39.149510000000000 -86.524223000000000 30524
Fri Apr 25 00:00:00 GMT 2014 Jones217 Boxelder Acer negundo Fruit (None) 39.149510000000000 -86.524223000000000 30525
Mon May 05 00:00:00 GMT 2014 allib001 Boxelder Acer negundo First Leaf 45.053700000000000 -92.812700000000000 31697
Wed May 07 00:00:00 GMT 2014 allib001 Boxelder Acer negundo First Flower 45.053700000000000 -92.812700000000000 31698
Fri Apr 18 00:00:00 GMT 2014 sciencekels Boxelder Acer negundo Bud Burst 39.393420000000000 -76.604310000000000 32221
Sat Apr 19 00:00:00 GMT 2014 sciencekels Boxelder Acer negundo First Leaf 39.393420000000000 -76.604310000000000 32222
Mon Apr 28 00:00:00 GMT 2014 sciencekels Boxelder Acer negundo All Leaves Unfolded 39.393420000000000 -76.604310000000000 32223
Fri Apr 18 00:00:00 GMT 2014 laurenb Boxelder Acer negundo Bud Burst 39.390550000000000 -76.605380000000000 32224
Sat Apr 19 00:00:00 GMT 2014 laurenb Boxelder Acer negundo First Leaf 39.390550000000000 -76.605380000000000 32225
Mon Apr 28 00:00:00 GMT 2014 laurenb Boxelder Acer negundo All Leaves Unfolded 39.390550000000000 -76.605380000000000 32226
Thu May 08 00:00:00 GMT 2014 hyurchenco Boxelder Acer negundo Leaves Unfolding (Middle) 44.820320000000000 -73.091800000000000 32275
Thu May 08 00:00:00 GMT 2014 hyurchenco Boxelder Acer negundo Leaves Changing Color (None) 44.820320000000000 -73.091800000000000 32276
Thu May 08 00:00:00 GMT 2014 hyurchenco Boxelder Acer negundo Leaves Dropping (None) 44.820320000000000 -73.091800000000000 32277
Thu May 08 00:00:00 GMT 2014 hyurchenco Boxelder Acer negundo Flowers (None) 44.820320000000000 -73.091800000000000 32278
Thu May 08 00:00:00 GMT 2014 hyurchenco Boxelder Acer negundo Fruit (None) 44.820320000000000 -73.091800000000000 32279
Wed May 14 00:00:00 GMT 2014 allib001 Boxelder Acer negundo All Leaves Unfolded 45.053700000000000 -92.812700000000000 32405
Wed Sep 24 00:00:00 GMT 2014 KChapman Boxelder Acer negundo Leaves Unfolding (Late) 41.677778000000000 -87.803611000000000 35685
Wed Sep 24 00:00:00 GMT 2014 KChapman Boxelder Acer negundo Leaves Changing Color (None) 41.677778000000000 -87.803611000000000 35686
Wed Sep 24 00:00:00 GMT 2014 KChapman Boxelder Acer negundo Leaves Dropping (None) 41.677778000000000 -87.803611000000000 35687
Wed Sep 24 00:00:00 GMT 2014 KChapman Boxelder Acer negundo Flowers (None) 41.677778000000000 -87.803611000000000 35688
Wed Sep 24 00:00:00 GMT 2014 KChapman Boxelder Acer negundo Fruit (Late) 41.677778000000000 -87.803611000000000 35689
Wed Oct 08 00:00:00 GMT 2014 KChapman Boxelder Acer negundo Leaves Unfolding (Late) 41.677778000000000 -87.803611000000000 36436
Wed Oct 08 00:00:00 GMT 2014 KChapman Boxelder Acer negundo Leaves Changing Color (None) 41.677778000000000 -87.803611000000000 36437
Wed Oct 08 00:00:00 GMT 2014 KChapman Boxelder Acer negundo Leaves Dropping (None) 41.677778000000000 -87.803611000000000 36438
Wed Oct 08 00:00:00 GMT 2014 KChapman Boxelder Acer negundo Flowers (None) 41.677778000000000 -87.803611000000000 36439
Wed Oct 08 00:00:00 GMT 2014 KChapman Boxelder Acer negundo Fruit (Late) 41.677778000000000 -87.803611000000000 36440
Wed Oct 15 00:00:00 GMT 2014 KChapman Boxelder Acer negundo Leaves Unfolding (Late) 41.677778000000000 -87.803611000000000 37611
Wed Oct 15 00:00:00 GMT 2014 KChapman Boxelder Acer negundo Leaves Changing Color (Late) 41.677778000000000 -87.803611000000000 37612
Wed Oct 15 00:00:00 GMT 2014 KChapman Boxelder Acer negundo Leaves Dropping (Early) 41.677778000000000 -87.803611000000000 37613
Wed Oct 15 00:00:00 GMT 2014 KChapman Boxelder Acer negundo Flowers (None) 41.677778000000000 -87.803611000000000 37614
Wed Oct 15 00:00:00 GMT 2014 KChapman Boxelder Acer negundo Fruit (None) 41.677778000000000 -87.803611000000000 37615
Fri Oct 17 00:00:00 GMT 2014 rshuman Boxelder Acer negundo Leaves Unfolding (Late) 44.695919000000000 -73.558763000000000 38597
Fri Oct 17 00:00:00 GMT 2014 rshuman Boxelder Acer negundo Leaves Changing Color (Middle) 44.695919000000000 -73.558763000000000 38598
Fri Oct 17 00:00:00 GMT 2014 rshuman Boxelder Acer negundo Leaves Dropping (Middle) 44.695919000000000 -73.558763000000000 38599
Fri Oct 17 00:00:00 GMT 2014 rshuman Boxelder Acer negundo Flowers (None) 44.695919000000000 -73.558763000000000 38600
Fri Oct 17 00:00:00 GMT 2014 rshuman Boxelder Acer negundo Fruit (None) 44.695919000000000 -73.558763000000000 38601
Fri Oct 17 00:00:00 GMT 2014 msanders0053 Boxelder Acer negundo Leaves Unfolding (None) 37.315190000000000 -82.439160000000000 37665
Fri Oct 17 00:00:00 GMT 2014 msanders0053 Boxelder Acer negundo Leaves Changing Color (Middle) 37.315190000000000 -82.439160000000000 37666
Fri Oct 17 00:00:00 GMT 2014 msanders0053 Boxelder Acer negundo Leaves Dropping (Early) 37.315190000000000 -82.439160000000000 37667
Fri Oct 17 00:00:00 GMT 2014 msanders0053 Boxelder Acer negundo Flowers (None) 37.315190000000000 -82.439160000000000 37668
Fri Oct 17 00:00:00 GMT 2014 msanders0053 Boxelder Acer negundo Fruit (None) 37.315190000000000 -82.439160000000000 37669
Fri Oct 17 00:00:00 GMT 2014 msanders0053 Boxelder Acer negundo Leaves Unfolding (None) 37.315190000000000 -82.439160000000000 37660
Fri Oct 17 00:00:00 GMT 2014 msanders0053 Boxelder Acer negundo Leaves Changing Color (Middle) 37.315190000000000 -82.439160000000000 37661
Fri Oct 17 00:00:00 GMT 2014 msanders0053 Boxelder Acer negundo Leaves Dropping (Early) 37.315190000000000 -82.439160000000000 37662
Fri Oct 17 00:00:00 GMT 2014 msanders0053 Boxelder Acer negundo Flowers (None) 37.315190000000000 -82.439160000000000 37663
Fri Oct 17 00:00:00 GMT 2014 msanders0053 Boxelder Acer negundo Fruit (None) 37.315190000000000 -82.439160000000000 37664
Fri Oct 17 00:00:00 GMT 2014 msanders0053 Boxelder Acer negundo Leaves Unfolding (None) 37.315190000000000 -82.439160000000000 37650
Fri Oct 17 00:00:00 GMT 2014 msanders0053 Boxelder Acer negundo Leaves Changing Color (Middle) 37.315190000000000 -82.439160000000000 37651
Fri Oct 17 00:00:00 GMT 2014 msanders0053 Boxelder Acer negundo Leaves Dropping (Early) 37.315190000000000 -82.439160000000000 37652
Fri Oct 17 00:00:00 GMT 2014 msanders0053 Boxelder Acer negundo Flowers (None) 37.315190000000000 -82.439160000000000 37653
Fri Oct 17 00:00:00 GMT 2014 msanders0053 Boxelder Acer negundo Fruit (None) 37.315190000000000 -82.439160000000000 37654
Thu Oct 23 00:00:00 GMT 2014 KChapman Boxelder Acer negundo Leaves Unfolding (Late) 41.677780000000000 -87.803611000000000 39733
Thu Oct 23 00:00:00 GMT 2014 KChapman Boxelder Acer negundo Leaves Changing Color (Early) 41.677780000000000 -87.803611000000000 39734
Thu Oct 23 00:00:00 GMT 2014 KChapman Boxelder Acer negundo Leaves Dropping (Early) 41.677780000000000 -87.803611000000000 39735
Thu Oct 23 00:00:00 GMT 2014 KChapman Boxelder Acer negundo Flowers (None) 41.677780000000000 -87.803611000000000 39736
Thu Oct 23 00:00:00 GMT 2014 KChapman Boxelder Acer negundo Fruit (None) 41.677780000000000 -87.803611000000000 39737
Wed Nov 05 00:00:00 GMT 2014 KChapman Boxelder Acer negundo Leaves Changing Color (Late) 41.677778000000000 -87.803611000000000 42001
Wed Nov 05 00:00:00 GMT 2014 KChapman Boxelder Acer negundo Leaves Dropping (Late) 41.677778000000000 -87.803611000000000 42002
Wed Nov 05 00:00:00 GMT 2014 KChapman Boxelder Acer negundo Flowers (None) 41.677778000000000 -87.803611000000000 42003
Wed Nov 05 00:00:00 GMT 2014 KChapman Boxelder Acer negundo Fruit (None) 41.677778000000000 -87.803611000000000 42004
Wed Nov 05 00:00:00 GMT 2014 KChapman Boxelder Acer negundo Leaves Unfolding (Late) 41.677778000000000 -87.803611000000000 42000
Wed Apr 06 00:00:00 GMT 2016 allib001 Boxelder Acer negundo Bud Burst 45.053700000000000 -92.812700000000000 64513
Tue Apr 12 00:00:00 GMT 2016 GCHardy Boxelder Acer negundo Leaves Unfolding (Middle) 39.211540000000000 -76.877040000000000 64540
Tue Apr 12 00:00:00 GMT 2016 GCHardy Boxelder Acer negundo Leaves Changing Color (None) 39.211540000000000 -76.877040000000000 64541
Tue Apr 12 00:00:00 GMT 2016 GCHardy Boxelder Acer negundo Leaves Dropping (None) 39.211540000000000 -76.877040000000000 64542
Tue Apr 12 00:00:00 GMT 2016 GCHardy Boxelder Acer negundo Flowers (None) 39.211540000000000 -76.877040000000000 64543
Tue Apr 12 00:00:00 GMT 2016 GCHardy Boxelder Acer negundo Fruit (None) 39.211540000000000 -76.877040000000000 64544
Wed Mar 16 00:00:00 GMT 2016 GCHardy Boxelder Acer negundo Bud Burst 39.211600000000000 -76.877640000000000 64550
Tue Apr 12 00:00:00 GMT 2016 GCHardy Boxelder Acer negundo First Leaf 39.211600000000000 -76.877640000000000 64551
Thu Apr 14 00:00:00 GMT 2016 MathewZappa Boxelder Acer negundo Bud Burst 44.898307000000000 -93.363415000000000 64599
Fri Apr 15 00:00:00 GMT 2016 allainas Boxelder Acer negundo Bud Burst 43.774053000000000 -87.994587000000000 64641
Sun Apr 17 00:00:00 GMT 2016 allib001 Boxelder Acer negundo First Leaf 45.053700000000000 -92.812700000000000 64699
Mon Apr 18 00:00:00 GMT 2016 allainas Boxelder Acer negundo First Flower 43.774053000000000 -87.994587000000000 64783
Wed Apr 20 00:00:00 GMT 2016 jhoopman Boxelder Acer negundo Leaves Unfolding (Early) 43.753923000000000 -87.976649000000000 64865
Wed Apr 20 00:00:00 GMT 2016 jhoopman Boxelder Acer negundo Leaves Changing Color (None) 43.753923000000000 -87.976649000000000 64866
Wed Apr 20 00:00:00 GMT 2016 jhoopman Boxelder Acer negundo Leaves Dropping (None) 43.753923000000000 -87.976649000000000 64867
Wed Apr 20 00:00:00 GMT 2016 jhoopman Boxelder Acer negundo Flowers (None) 43.753923000000000 -87.976649000000000 64868
Wed Apr 20 00:00:00 GMT 2016 jhoopman Boxelder Acer negundo Fruit (None) 43.753923000000000 -87.976649000000000 64869
Thu Apr 21 00:00:00 GMT 2016 GCHardy Boxelder Acer negundo Leaves Unfolding (Middle) 39.211600000000000 -76.877640000000000 64906
Thu Apr 21 00:00:00 GMT 2016 GCHardy Boxelder Acer negundo Leaves Changing Color (None) 39.211600000000000 -76.877640000000000 64907
Thu Apr 21 00:00:00 GMT 2016 GCHardy Boxelder Acer negundo Leaves Dropping (None) 39.211600000000000 -76.877640000000000 64908
Thu Apr 21 00:00:00 GMT 2016 GCHardy Boxelder Acer negundo Flowers (Late) 39.211600000000000 -76.877640000000000 64909
Thu Apr 21 00:00:00 GMT 2016 GCHardy Boxelder Acer negundo Fruit (Early) 39.211600000000000 -76.877640000000000 64910
Sat Apr 23 00:00:00 GMT 2016 jrfraney Boxelder Acer negundo Leaves Unfolding (Late) 39.569622000000000 -95.111217000000000 65548
Sat Apr 23 00:00:00 GMT 2016 jrfraney Boxelder Acer negundo Leaves Changing Color (None) 39.569622000000000 -95.111217000000000 65549
Sat Apr 23 00:00:00 GMT 2016 jrfraney Boxelder Acer negundo Leaves Dropping (None) 39.569622000000000 -95.111217000000000 65550
Sat Apr 23 00:00:00 GMT 2016 jrfraney Boxelder Acer negundo Flowers (Middle) 39.569622000000000 -95.111217000000000 65551
Sat Apr 23 00:00:00 GMT 2016 jrfraney Boxelder Acer negundo Fruit (None) 39.569622000000000 -95.111217000000000 65552
Wed Apr 27 00:00:00 GMT 2016 allib001 Boxelder Acer negundo All Leaves Unfolded 45.053700000000000 -92.812700000000000 65579
Wed Apr 27 00:00:00 GMT 2016 allainas Boxelder Acer negundo Full Flower 43.774053000000000 -87.994587000000000 65611
Wed Apr 13 00:00:00 GMT 2016 awoodkeplymouth Boxelder Acer negundo Leaves Unfolding (None) 43.756093000000000 -87.978280000000000 65613
Wed Apr 13 00:00:00 GMT 2016 awoodkeplymouth Boxelder Acer negundo Leaves Changing Color (None) 43.756093000000000 -87.978280000000000 65614
Wed Apr 13 00:00:00 GMT 2016 awoodkeplymouth Boxelder Acer negundo Leaves Dropping (None) 43.756093000000000 -87.978280000000000 65615
Wed Apr 13 00:00:00 GMT 2016 awoodkeplymouth Boxelder Acer negundo Flowers (None) 43.756093000000000 -87.978280000000000 65616
Wed Apr 13 00:00:00 GMT 2016 awoodkeplymouth Boxelder Acer negundo Fruit (None) 43.756093000000000 -87.978280000000000 65617
Thu Apr 14 00:00:00 GMT 2016 awoodkeplymouth Boxelder Acer negundo Leaves Unfolding (None) 43.756093000000000 -87.978280000000000 65618
Thu Apr 14 00:00:00 GMT 2016 awoodkeplymouth Boxelder Acer negundo Leaves Changing Color (None) 43.756093000000000 -87.978280000000000 65619
Thu Apr 14 00:00:00 GMT 2016 awoodkeplymouth Boxelder Acer negundo Leaves Dropping (None) 43.756093000000000 -87.978280000000000 65620
Thu Apr 14 00:00:00 GMT 2016 awoodkeplymouth Boxelder Acer negundo Flowers (None) 43.756093000000000 -87.978280000000000 65621
Thu Apr 14 00:00:00 GMT 2016 awoodkeplymouth Boxelder Acer negundo Fruit (None) 43.756093000000000 -87.978280000000000 65622
Mon Apr 18 00:00:00 GMT 2016 awoodkeplymouth Boxelder Acer negundo Leaves Unfolding (Early) 43.756093000000000 -87.978280000000000 65623
Mon Apr 18 00:00:00 GMT 2016 awoodkeplymouth Boxelder Acer negundo Leaves Changing Color (None) 43.756093000000000 -87.978280000000000 65624
Mon Apr 18 00:00:00 GMT 2016 awoodkeplymouth Boxelder Acer negundo Leaves Dropping (Early) 43.756093000000000 -87.978280000000000 65625
Mon Apr 18 00:00:00 GMT 2016 awoodkeplymouth Boxelder Acer negundo Flowers (Early) 43.756093000000000 -87.978280000000000 65626
Mon Apr 18 00:00:00 GMT 2016 awoodkeplymouth Boxelder Acer negundo Fruit (None) 43.756093000000000 -87.978280000000000 65627
Wed Apr 27 00:00:00 GMT 2016 annatust Boxelder Acer negundo Leaves Unfolding (Late) 39.617590000000000 -94.964275000000000 65641
Wed Apr 27 00:00:00 GMT 2016 annatust Boxelder Acer negundo Leaves Changing Color (None) 39.617590000000000 -94.964275000000000 65642
Wed Apr 27 00:00:00 GMT 2016 annatust Boxelder Acer negundo Leaves Dropping (None) 39.617590000000000 -94.964275000000000 65643
Wed Apr 27 00:00:00 GMT 2016 annatust Boxelder Acer negundo Flowers (None) 39.617590000000000 -94.964275000000000 65644
Wed Apr 27 00:00:00 GMT 2016 annatust Boxelder Acer negundo Fruit (None) 39.617590000000000 -94.964275000000000 65645
Fri May 06 00:00:00 GMT 2016 GCHardy Boxelder Acer negundo Leaves Unfolding (Late) 39.211600000000000 -76.877640000000000 66456
Fri May 06 00:00:00 GMT 2016 GCHardy Boxelder Acer negundo Leaves Changing Color (None) 39.211600000000000 -76.877640000000000 66457
Fri May 06 00:00:00 GMT 2016 GCHardy Boxelder Acer negundo Leaves Dropping (None) 39.211600000000000 -76.877640000000000 66458
Fri May 06 00:00:00 GMT 2016 GCHardy Boxelder Acer negundo Flowers (Late) 39.211600000000000 -76.877640000000000 66459
Fri May 06 00:00:00 GMT 2016 GCHardy Boxelder Acer negundo Fruit (Late) 39.211600000000000 -76.877640000000000 66460
Wed Oct 12 00:00:00 GMT 2016 NatureGirl84 Boxelder Acer negundo Leaves Unfolding (Late) 37.388340000000000 -79.537600000000000 70660
Wed Oct 12 00:00:00 GMT 2016 NatureGirl84 Boxelder Acer negundo Leaves Changing Color (None) 37.388340000000000 -79.537600000000000 70661
Wed Oct 12 00:00:00 GMT 2016 NatureGirl84 Boxelder Acer negundo Leaves Dropping (Early) 37.388340000000000 -79.537600000000000 70662
Wed Oct 12 00:00:00 GMT 2016 NatureGirl84 Boxelder Acer negundo Flowers (None) 37.388340000000000 -79.537600000000000 70663
Wed Oct 12 00:00:00 GMT 2016 NatureGirl84 Boxelder Acer negundo Fruit (None) 37.388340000000000 -79.537600000000000 70664
Fri Oct 14 00:00:00 GMT 2016 elen2 Boxelder Acer negundo 50% Leaf Fall 38.988535000000000 -94.813857000000000 71550
Mon Oct 31 00:00:00 GMT 2016 rshuman Boxelder Acer negundo Leaves Unfolding (None) 44.695522000000000 -73.559071000000000 72060
Mon Oct 31 00:00:00 GMT 2016 rshuman Boxelder Acer negundo Leaves Changing Color (Middle) 44.695522000000000 -73.559071000000000 72061
Mon Oct 31 00:00:00 GMT 2016 rshuman Boxelder Acer negundo Leaves Dropping (Middle) 44.695522000000000 -73.559071000000000 72062
Mon Oct 31 00:00:00 GMT 2016 rshuman Boxelder Acer negundo Flowers (None) 44.695522000000000 -73.559071000000000 72063
Mon Oct 31 00:00:00 GMT 2016 rshuman Boxelder Acer negundo Fruit (None) 44.695522000000000 -73.559071000000000 72064
Mon Aug 29 00:00:00 GMT 2016 eyeakey Boxelder Acer negundo All Leaves Unfolded 39.169997000000000 -86.509867000000000 73358
Sat Oct 15 00:00:00 GMT 2016 allib001 Boxelder Acer negundo 50% Leaf Fall 45.053700000000000 -92.812700000000000 74077
Tue Jan 17 00:00:00 GMT 2017 WalkingSaints Boxelder Acer negundo Leaves Unfolding (None) 39.790463000000000 -105.032558000000000 74514
Tue Jan 17 00:00:00 GMT 2017 WalkingSaints Boxelder Acer negundo Leaves Changing Color (None) 39.790463000000000 -105.032558000000000 74515
Tue Jan 17 00:00:00 GMT 2017 WalkingSaints Boxelder Acer negundo Leaves Dropping (Late) 39.790463000000000 -105.032558000000000 74516
Tue Jan 17 00:00:00 GMT 2017 WalkingSaints Boxelder Acer negundo Flowers (None) 39.790463000000000 -105.032558000000000 74517
Tue Jan 17 00:00:00 GMT 2017 WalkingSaints Boxelder Acer negundo Fruit (None) 39.790463000000000 -105.032558000000000 74518
Fri Feb 03 00:00:00 GMT 2017 Blopez38 Boxelder Acer negundo Bud Burst 39.728140000000000 -121.846280000000000 74723
Mon Mar 20 00:00:00 GMT 2017 WalkingSaints Boxelder Acer negundo Leaves Unfolding (Early) 39.790428000000000 -105.032550000000000 76016
Mon Mar 20 00:00:00 GMT 2017 WalkingSaints Boxelder Acer negundo Leaves Changing Color (None) 39.790428000000000 -105.032550000000000 76017
Mon Mar 20 00:00:00 GMT 2017 WalkingSaints Boxelder Acer negundo Leaves Dropping (None) 39.790428000000000 -105.032550000000000 76018
Mon Mar 20 00:00:00 GMT 2017 WalkingSaints Boxelder Acer negundo Flowers (None) 39.790428000000000 -105.032550000000000 76019
Mon Mar 20 00:00:00 GMT 2017 WalkingSaints Boxelder Acer negundo Fruit (None) 39.790428000000000 -105.032550000000000 76020
Wed Mar 29 00:00:00 GMT 2017 allib001 Boxelder Acer negundo Bud Burst 45.053700000000000 -92.812700000000000 76575
Fri Mar 31 00:00:00 GMT 2017 LRSmythe Boxelder Acer negundo Leaves Unfolding (None) 42.176780000000000 -87.957990000000000 76700
Fri Mar 31 00:00:00 GMT 2017 LRSmythe Boxelder Acer negundo Leaves Changing Color (None) 42.176780000000000 -87.957990000000000 76701
Fri Mar 31 00:00:00 GMT 2017 LRSmythe Boxelder Acer negundo Leaves Dropping (None) 42.176780000000000 -87.957990000000000 76702
Fri Mar 31 00:00:00 GMT 2017 LRSmythe Boxelder Acer negundo Flowers (Early) 42.176780000000000 -87.957990000000000 76703
Fri Mar 31 00:00:00 GMT 2017 LRSmythe Boxelder Acer negundo Fruit (None) 42.176780000000000 -87.957990000000000 76704
Wed Apr 12 00:00:00 GMT 2017 elen2 Boxelder Acer negundo Bud Burst 38.988535000000000 -94.813857000000000 77968
Wed Apr 12 00:00:00 GMT 2017 elen2 Boxelder Acer negundo First Leaf 38.988535000000000 -94.813857000000000 77969
Wed Apr 12 00:00:00 GMT 2017 elen2 Boxelder Acer negundo First Flower 38.988535000000000 -94.813857000000000 77970
Mon Apr 17 00:00:00 GMT 2017 shetdog1 Boxelder Acer negundo Leaves Unfolding (Middle) 40.092861000000000 -75.288293000000000 78452
Mon Apr 17 00:00:00 GMT 2017 shetdog1 Boxelder Acer negundo Leaves Changing Color (None) 40.092861000000000 -75.288293000000000 78453
Mon Apr 17 00:00:00 GMT 2017 shetdog1 Boxelder Acer negundo Leaves Dropping (None) 40.092861000000000 -75.288293000000000 78454
Mon Apr 17 00:00:00 GMT 2017 shetdog1 Boxelder Acer negundo Flowers (None) 40.092861000000000 -75.288293000000000 78455
Mon Apr 17 00:00:00 GMT 2017 shetdog1 Boxelder Acer negundo Fruit (None) 40.092861000000000 -75.288293000000000 78456
Tue Apr 18 00:00:00 GMT 2017 Sardean Boxelder Acer negundo Leaves Unfolding (Middle) 37.436540000000000 -122.143200000000000 78611
Tue Apr 18 00:00:00 GMT 2017 Sardean Boxelder Acer negundo Leaves Changing Color (Middle) 37.436540000000000 -122.143200000000000 78612
Tue Apr 18 00:00:00 GMT 2017 Sardean Boxelder Acer negundo Leaves Dropping (Middle) 37.436540000000000 -122.143200000000000 78613
Tue Apr 18 00:00:00 GMT 2017 Sardean Boxelder Acer negundo Flowers (Late) 37.436540000000000 -122.143200000000000 78614
Tue Apr 18 00:00:00 GMT 2017 Sardean Boxelder Acer negundo Fruit (None) 37.436540000000000 -122.143200000000000 78615
Sat Apr 15 00:00:00 GMT 2017 allib001 Boxelder Acer negundo First Flower 45.053700000000000 -92.812700000000000 79032
Mon Apr 24 00:00:00 GMT 2017 allib001 Boxelder Acer negundo All Leaves Unfolded 45.053700000000000 -92.812700000000000 80394
Thu Apr 27 00:00:00 GMT 2017 rhanson_TPVS_Trails_reporter12 Boxelder Acer negundo Bud Burst 43.645000000000000 -72.525760000000000 80519

*All downloadable materials require the free Adobe Reader.